Location: Fredericton
(45.9636°N, 66.6431°W)
Time: 14:10:48
(UTC-04:00)

Tiangong - Visible Passes

Search period start: 30 November 2023 00:00
Search period end: 10 December 2023 00:00
Orbit: 374 x 384 km, 41.5° (Epoch: 30 November)

Date Brightness Start Highest point End Pass type
(mag) Time Alt. Az. Time Alt. Az. Time Alt. Az.
30 Nov 0.4 18:46:41 10° WSW 18:48:41 16° SSW 18:49:45 14° S visible
01 Dec 0.2 17:44:44 10° WSW 17:47:16 22° SSW 17:49:47 10° SE visible
02 Dec 1.0 18:20:52 10° SW 18:21:48 11° SSW 18:22:45 10° S visible
03 Dec 0.8 17:18:09 10° WSW 17:20:15 17° SSW 17:22:21 10° SSE visible
